Zurück zum Katalog

VINASAT 2

AktivKommunikationGEO
NORAD 38332·PAYLOAD·🇻🇳 Vietnam

Gestartet May 15, 2012 von Guiana Space Centre

Loading…

TLE

AktuellSource: Space-Track

Epoche: Sep 14, 2026, 14:25 UTC

1 38332U 12023B   26257.60127446 -.00000336  00000-0  00000-0 0  9992
2 38332   0.0445 328.8262 0002067 194.9546 178.1104  1.00272345 47555

Verfolge VINASAT 2 in Echtzeit mit AllMySat

Download on the App Store